Погода в Татарове

Украина / Ивано-Франковская область     48°20′36″N   24°34′36″E
темп.,
°C
ветер,
м/с
пор.,
м/с
влажн.,
%
обл.,
%
осадки,
мм/ч
давл.,
гПа
погр.,
м
16 мая, вс
вс1600:00+5ю119589 0.0 101211
03:00+5ююз119071 0.0 101110
06:00+5ю1189100 0.0 101011
09:00+12юз1271100 0.0 1008271
12:00+13ююв1273100 1.6 1008781
15:00+10вюв2292100 5.3 1008160
18:00+11зюз128777 1.4 1007403
21:00+9зюз229898 3.3 100859
17 мая, пн
пн1700:00+7юз219884 0.0 101039
03:00+6юз1199100 0.0 101029
06:00+5юз119860 0.0 101064
09:00+10юв12830 0.0 1008351
12:00+15юв125796 0.1 10051498
15:00+17зюз124998 0.2 10031670
18:00+13ююз127391 0.2 1003146
21:00+9юз1189100 0.4 100313
18 мая, вт
вт1800:00+8юз2298100 0.1 100461
03:00+8зюз2399100 0.3 1002108
06:00+7юз2498100 3.4 1003319
09:00+6зюз2397100 4.6 1004283
12:00+5з2696100 3.1 1007936
15:00+6з2795100 5.1 1008926
18:00+6з2794100 0.3 10091012
21:00+6зюз2397100 0.4 1011108
19 мая, ср
ср1900:00+4зюз239896 0.1 1012115
03:00+4юз239963 0.1 101288
06:00+3зюз239997 0.0 1013115
09:00+6зюз238998 0.0 1013530
12:00+9зюз237088 0.1 1012968
15:00+12сз235633 0.1 10111311
18:00+12ссз115996 0.4 10101157
21:00+7в2295100 1.6 101246
20 мая, чт
чт2000:00+7всв1299100 3.3 1011101
03:00+7всв1299100 6.9 1009165
06:00+6зсз1299100 4.3 1008214
09:00+5зюз1298100 10.3 1009496
12:00+3ссз1397100 9.2 1010506
15:00+4ссз2598100 14.8 1010626
18:00+3ссз2699100 3.3 1012593
21:00+1сз23100100 6.7 1013154